Theta_e
304 303 301 301 301 300 300 298 296 292 292 295 296 299 299 300 306 301 301 311 312 314 316 315 315 315 316 315 315 315 315 314 314 315 316 317 318 320
304 302 302 300 300 299 298 298 297 295 291 294 295 297 298 301 305 299 302 308 309 311 315 314 314 316 315 314 313 312 312 312 312 313 313 313 314 315
303 304 302 300 298 298 297 296 296 294 291 292 295 296 297 296 298 298 301 300 300 309 313 314 314 313 312 312 311 311 310 309 310 311 311 311 312 313
305 303 303 303 297 297 295 294 294 293 292 291 292 294 294 296 297 297 299 302 299 307 312 311 312 313 311 310 309 309 308 307 307 308 308 310 311 310
305 304 304 301 298 295 293 293 293 296 293 292 291 292 294 295 295 296 297 297 301 308 309 309 309 311 310 309 309 309 307 306 305 305 306 307 308 308
306 305 303 300 295 295 293 292 293 293 292 293 292 291 292 293 293 292 294 294 295 300 304 306 306 306 308 308 308 309 307 306 305 304 305 303 304 304
305 303 300 299 303 299 296 293 293 292 293 292 290 290 290 290 290 292 291 292 293 295 296 297 297 297 299 305 307 307 308 306 305 304 304 303 302 302
301 301 303 307 306 306 305 304 299 296 293 292 290 289 289 289 290 291 290 290 289 294 295 296 295 295 297 298 306 308 307 306 305 304 303 303 301 300
302 302 300 299 298 298 304 306 307 304 299 293 291 290 290 291 291 290 290 289 290 294 294 293 294 294 296 299 304 306 306 304 304 303 303 302 300 298
304 301 297 294 294 297 297 295 294 295 296 297 293 292 292 293 292 293 292 291 292 293 294 291 293 293 295 296 302 303 303 302 302 302 302 302 300 299
304 301 297 294 297 299 296 293 291 292 298 301 299 299 299 298 297 293 292 291 290 291 293 292 293 291 292 294 296 302 301 300 300 301 301 302 300 299
303 300 300 295 297 298 294 291 290 290 291 292 292 294 294 295 301 294 293 291 289 290 293 293 292 290 290 292 294 296 295 299 299 300 300 301 300 299
300 298 295 297 296 296 294 292 291 291 292 292 291 291 291 292 292 292 293 294 291 290 295 294 291 290 289 289 292 294 294 295 295 296 297 299 299 299
298 296 295 295 294 294 293 294 294 295 291 291 290 290 290 291 293 293 293 294 295 295 296 293 291 291 289 287 289 293 295 295 294 292 291 296 299 299
299 297 295 294 294 294 295 295 295 291 290 291 290 290 291 292 292 294 295 294 294 295 298 294 292 292 289 288 289 290 290 293 292 291 291 292 297 298
298 297 296 294 293 293 293 294 293 292 291 291 291 291 293 293 292 292 293 292 291 292 296 296 295 291 291 290 289 289 290 288 291 290 289 290 295 298
294 293 290 290 289 290 291 292 293 293 292 292 292 292 291 292 292 292 292 291 290 290 292 294 295 294 293 290 289 290 290 289 291 290 289 288 292 297
293 291 291 290 289 290 291 292 293 295 293 293 293 292 291 292 291 292 292 291 291 291 291 291 291 291 291 292 296 291 290 290 290 290 288 287 288 296
291 291 291 290 291 292 293 293 294 295 295 294 294 293 292 292 291 292 292 292 292 292 292 291 290 289 287 286 290 297 290 294 289 288 288 288 288 292
290 291 292 294 295 296 296 295 295 294 293 294 293 293 292 292 293 292 292 291 294 295 292 291 290 290 291 289 287 290 293 291 288 287 287 288 290 294
290 291 293 294 294 295 295 295 293 293 294 294 294 294 294 292 292 292 292 289 291 295 295 291 293 288 294 291 287 287 290 295 294 288 288 286 287 289
293 293 293 293 293 294 294 294 294 293 293 294 294 293 294 293 293 293 293 295 296 296 296 293 293 291 290 287 285 286 287 290 294 297 297 293 288 286
293 293 293 293 293 293 293 293 294 295 294 295 294 294 294 294 294 294 294 298 297 297 295 291 290 290 289 287 285 286 287 287 288 288 289 295 296 296
Wind_Speed
6 6 4 2 3 4 3 2 5 3 1 3 3 4 4 3 7 5 6 13 16 15 14 16 15 15 12 11 12 14 15 17 18 19 20 20 20 20
5 7 5 3 4 4 4 3 2 5 3 2 2 1 3 4 5 4 5 11 14 14 15 14 15 13 12 12 12 14 16 17 19 19 20 20 21 21
6 7 6 4 3 4 3 3 4 3 4 2 2 2 2 3 5 5 5 5 5 13 16 14 10 10 10 12 14 15 16 17 18 19 20 21 21 21
8 8 8 5 5 4 4 5 3 2 4 3 1 2 1 2 4 4 5 5 5 12 15 14 8 7 9 11 12 13 15 16 17 18 21 20 21 21
10 9 8 7 5 3 3 5 3 2 2 2 1 1 2 2 4 3 4 5 5 12 11 13 12 9 9 10 11 12 12 14 14 17 19 20 22 21
10 9 9 8 8 7 5 5 3 4 1 1 2 1 2 3 1 2 5 2 4 5 9 9 10 10 10 10 11 13 12 12 12 14 17 21 21 21
7 8 8 10 13 9 5 5 5 3 2 3 0 1 2 3 2 2 2 3 4 2 4 4 4 4 5 9 10 13 12 11 11 12 14 18 19 21
10 6 8 12 9 9 7 7 7 6 3 3 2 2 2 3 2 1 2 3 4 1 3 6 2 5 5 5 12 14 14 12 12 11 12 16 21 22
7 7 6 4 7 6 5 5 7 6 6 6 4 4 2 4 0 2 2 2 3 4 2 4 3 4 5 6 13 14 16 16 14 12 11 14 20 22
10 9 8 7 6 7 6 6 3 2 3 4 5 5 6 3 4 3 2 3 5 3 1 3 2 4 5 6 13 14 13 14 12 11 9 10 18 20
10 7 8 6 9 10 7 6 3 2 3 2 5 7 5 5 7 2 3 4 4 3 2 1 4 4 4 5 6 13 13 14 12 11 8 10 12 14
9 7 13 9 10 11 7 6 6 3 1 2 2 2 5 5 5 2 3 1 1 3 3 2 4 2 5 4 5 5 5 10 14 9 12 8 11 6
8 6 4 11 12 11 9 6 5 4 3 2 1 3 3 4 2 2 3 3 1 3 4 0 3 3 1 5 5 5 4 5 5 5 10 8 10 10
8 5 6 13 12 11 8 7 6 4 3 2 2 3 2 3 3 3 2 4 4 6 5 1 3 1 2 4 4 5 7 8 3 5 4 6 7 9
6 9 11 12 11 8 8 7 6 3 2 1 2 0 2 2 4 3 3 3 3 3 2 1 2 4 2 4 4 4 5 6 5 4 5 4 3 4
8 6 8 8 6 5 4 4 4 4 4 3 2 2 2 1 1 1 2 3 3 4 6 4 4 2 4 4 3 4 4 4 5 4 4 3 3 3
7 4 3 4 4 4 3 4 3 3 4 3 2 2 2 2 2 0 1 1 0 3 5 5 6 6 4 5 4 4 5 4 5 4 4 4 3 3
4 4 4 5 6 6 5 4 3 5 4 4 2 3 3 3 2 2 1 1 2 2 3 3 3 5 4 5 8 4 4 4 5 6 2 3 5 3
4 4 5 6 6 6 5 5 4 5 3 4 4 5 4 4 3 3 2 2 3 2 3 2 2 2 3 4 5 3 3 6 5 5 3 3 3 6
3 4 5 6 5 6 5 5 4 4 5 5 5 5 5 4 3 4 3 3 4 2 3 1 1 2 2 3 4 6 4 3 3 4 4 4 4 8
4 4 5 6 5 5 5 4 5 5 5 4 5 5 5 4 5 5 5 6 4 2 5 2 4 5 3 2 4 5 7 4 6 2 4 3 4 5
7 7 5 5 5 5 5 5 4 4 4 5 5 5 5 4 5 5 5 5 4 4 4 2 4 2 1 1 3 5 5 6 4 5 5 3 0 4
8 8 7 6 5 5 5 5 4 4 5 5 5 5 5 5 5 5 5 5 5 4 3 2 1 0 1 1 2 4 5 5 4 6 5 9 6 5
Wind_Direction
137 125 110 111 86 81 94 128 135 131 342 305 38 344 338 5 15 1 338 351 355 355 2 2 357 351 353 11 12 4 353 349 346 341 336 332 327 323
132 125 121 116 109 111 110 106 112 138 151 190 300 277 321 347 346 5 338 359 353 349 356 359 356 359 16 19 9 1 354 347 341 339 336 335 330 324
135 128 120 134 125 108 104 85 82 96 122 309 249 293 321 332 344 345 348 343 328 344 355 355 358 14 10 4 359 355 350 346 341 340 336 334 334 331
148 137 136 128 108 119 103 102 100 94 120 141 265 297 307 312 286 339 345 338 332 344 350 356 356 355 359 354 349 345 344 345 345 340 335 332 332 331
153 147 147 142 132 136 123 112 116 89 86 141 254 346 282 321 319 325 335 339 330 338 345 344 348 331 336 340 334 330 337 341 333 339 332 331 331 331
148 151 147 152 149 145 135 130 132 128 135 106 56 309 266 296 308 322 340 336 319 329 332 326 332 333 321 314 327 329 329 329 334 330 335 337 327 334
132 144 139 154 149 151 138 162 151 144 161 87 31 342 311 337 326 320 295 306 300 297 309 306 313 317 322 309 302 311 314 317 331 332 330 329 330 335
158 159 153 145 133 130 155 176 179 159 145 142 177 226 261 244 284 336 283 12 319 273 323 303 12 314 301 303 291 294 298 297 308 323 334 337 335 334
161 154 136 136 127 123 126 116 129 143 151 157 179 217 242 215 95 296 267 215 252 282 345 289 337 312 301 305 305 304 301 305 302 302 326 343 337 335
162 180 145 150 148 142 135 125 118 158 145 193 196 223 233 250 196 204 247 290 282 292 212 285 317 284 310 310 314 315 322 321 312 305 319 335 345 338
153 205 144 148 158 149 144 144 173 212 292 274 233 241 274 264 196 146 10 39 316 297 325 281 297 300 308 306 304 313 326 327 325 319 310 334 341 330
185 170 156 156 165 154 148 155 158 207 328 18 24 19 9 23 141 137 144 58 275 318 277 338 320 351 324 292 301 304 323 319 320 321 315 331 359 348
169 169 159 167 164 155 142 170 173 172 48 70 13 30 357 5 32 1 181 172 179 253 266 43 300 319 232 295 301 302 318 307 307 318 333 342 3 0
164 163 170 180 164 156 163 189 158 136 95 94 71 38 349 331 342 346 249 222 223 221 293 227 276 255 278 301 292 315 321 319 316 318 332 338 2 354
147 166 178 187 158 168 184 180 157 130 124 134 102 260 241 260 310 326 303 326 303 280 307 331 230 287 220 252 272 291 314 315 314 325 334 350 328 342
155 171 186 162 151 155 165 191 181 167 174 188 158 234 283 336 311 307 322 343 358 310 316 310 326 279 303 269 223 295 294 302 318 321 320 320 328 322
126 118 136 128 162 185 191 199 180 170 180 191 168 231 257 252 261 289 255 349 358 293 307 311 327 315 274 237 309 303 310 307 314 304 347 323 317 325
118 153 154 164 184 188 186 207 196 208 203 189 200 203 227 235 245 274 226 209 252 273 275 278 320 336 336 312 216 287 310 291 317 317 337 337 322 338
137 156 160 177 193 183 180 183 211 218 178 189 199 213 220 247 222 252 268 251 271 257 272 269 311 351 327 314 291 269 291 321 320 330 333 340 309 342
148 160 174 189 194 183 182 192 225 206 206 190 192 207 210 226 232 251 254 253 265 264 286 281 272 257 254 287 302 287 268 287 317 314 328 324 291 300
189 187 182 193 192 190 185 201 213 204 195 173 201 202 216 206 237 246 254 244 243 230 271 270 243 239 274 342 340 314 308 218 227 268 308 339 329 339
192 203 203 197 197 194 188 195 208 212 208 195 215 196 221 199 232 246 245 251 248 233 239 242 290 358 338 5 286 289 308 312 11 39 47 186 237 347
195 200 197 196 194 193 191 202 204 217 205 205 206 204 207 212 222 236 250 240 243 250 216 299 319 9 225 224 265 294 302 308 338 352 350 359 18 29